• In Deutschland
  • Länderverzeichnis
  • Für 7 Tage
  • Wassertemperatur
  • Satellitenkarten
  • Wetterkarte
  • Widgets
  • user-avatar
    Anmelden

    Stündliche Wetter Hepo

    Heute, 20 Januar, Samstag

    Zeit Temperatur Niederschläge Wind Luftdruck Luftfeuchtigkeit
    00:00 +20°C° 0 mm 1 m/S 757 mmHg 93%
    01:00 +19°C° 0 mm 1 m/S 757 mmHg 93%
    02:00 +19°C° 0 mm 1 m/S 757 mmHg 94%
    03:00 +19°C° 0 mm 1 m/S 757 mmHg 94%
    04:00 +19°C° 0 mm 1 m/S 757 mmHg 93%
    05:00 +19°C° 0 mm 1 m/S 757 mmHg 93%
    06:00 +19°C° 0 mm 1 m/S 757 mmHg 93%
    07:00 +19°C° 0 mm 1 m/S 758 mmHg 92%
    08:00 +19°C° 0 mm 1 m/S 758 mmHg 91%
    09:00 +20°C° 0 mm 1 m/S 758 mmHg 86%
    10:00 +21°C° 0 mm 1 m/S 758 mmHg 80%
    11:00 +21°C° 0 mm 2 m/S 758 mmHg 75%
    12:00 +23°C° 0 mm 2 m/S 757 mmHg 73%
    13:00 +24°C° 0 mm 2 m/S 757 mmHg 70%
    14:00 +24°C° 0 mm 1 m/S 757 mmHg 68%
    15:00 +24°C° 0 mm 1 m/S 756 mmHg 69%
    16:00 +24°C° 0 mm 1 m/S 756 mmHg 70%
    17:00 +24°C° 0 mm 1 m/S 756 mmHg 70%
    18:00 +23°C° 0 mm 1 m/S 756 mmHg 74%
    19:00 +22°C° 0 mm 1 m/S 757 mmHg 78%
    20:00 +21°C° 0 mm 1 m/S 757 mmHg 82%
    21:00 +20°C° 0 mm 1 m/S 757 mmHg 84%
    22:00 +20°C° 0 mm 1 m/S 757 mmHg 85%
    23:00 +19°C° 0 mm 1 m/S 757 mmHg 87%

    Morgen, 21 Januar, Sonntag

    Zeit Temperatur Niederschläge Wind Luftdruck Luftfeuchtigkeit
    00:00 +19°C° 0 mm 1 m/S 757 mmHg 88%
    01:00 +19°C° 0 mm 1 m/S 757 mmHg 89%
    02:00 +18°C° 0 mm 1 m/S 757 mmHg 90%
    03:00 +18°C° 0 mm 1 m/S 757 mmHg 90%
    04:00 +18°C° 0 mm 1 m/S 756 mmHg 90%
    05:00 +18°C° 0 mm 1 m/S 756 mmHg 90%
    06:00 +18°C° 0 mm 1 m/S 756 mmHg 89%
    07:00 +19°C° 0 mm 1 m/S 757 mmHg 88%
    08:00 +19°C° 0 mm 1 m/S 757 mmHg 86%
    09:00 +20°C° 0 mm 1 m/S 757 mmHg 81%
    10:00 +22°C° 0 mm 1 m/S 757 mmHg 75%
    11:00 +23°C° 0 mm 2 m/S 757 mmHg 70%
    12:00 +23°C° 0 mm 1 m/S 757 mmHg 70%
    13:00 +23°C° 0 mm 1 m/S 756 mmHg 70%
    14:00 +23°C° 0 mm 1 m/S 756 mmHg 70%
    15:00 +23°C° 0,1 mm 1 m/S 755 mmHg 73%
    16:00 +22°C° 0,1 mm 1 m/S 755 mmHg 75%
    17:00 +22°C° 0,1 mm 1 m/S 755 mmHg 77%
    18:00 +21°C° 0,1 mm 1 m/S 755 mmHg 79%
    19:00 +21°C° 0,1 mm 1 m/S 756 mmHg 80%
    20:00 +21°C° 0,1 mm 1 m/S 756 mmHg 81%
    21:00 +21°C° 0,1 mm 1 m/S 756 mmHg 83%
    22:00 +20°C° 0,1 mm 1 m/S 756 mmHg 84%
    23:00 +20°C° 0,1 mm 1 m/S 757 mmHg 86%

    übermorgen, 22 Januar, Montag

    Zeit Temperatur Niederschläge Wind Luftdruck Luftfeuchtigkeit
    00:00 +20°C° 0 mm 1 m/S 756 mmHg 87%
    01:00 +20°C° 0 mm 1 m/S 756 mmHg 88%
    02:00 +19°C° 0 mm 1 m/S 756 mmHg 89%
    03:00 +19°C° 0 mm 1 m/S 756 mmHg 90%
    04:00 +19°C° 0 mm 1 m/S 755 mmHg 91%
    05:00 +18°C° 0 mm 1 m/S 755 mmHg 92%
    06:00 +19°C° 0 mm 1 m/S 755 mmHg 91%
    07:00 +19°C° 0 mm 1 m/S 755 mmHg 91%
    08:00 +19°C° 0 mm 1 m/S 756 mmHg 90%
    09:00 +21°C° 0 mm 1 m/S 756 mmHg 82%
    10:00 +23°C° 0 mm 1 m/S 756 mmHg 73%
    11:00 +25°C° 0 mm 2 m/S 756 mmHg 65%
    12:00 +26°C° 0 mm 2 m/S 755 mmHg 61%
    13:00 +27°C° 0 mm 2 m/S 755 mmHg 56%
    14:00 +27°C° 0 mm 2 m/S 754 mmHg 52%
    15:00 +27°C° 0 mm 2 m/S 754 mmHg 55%
    16:00 +26°C° 0 mm 2 m/S 753 mmHg 58%
    17:00 +26°C° 0 mm 2 m/S 753 mmHg 61%
    18:00 +24°C° 0 mm 2 m/S 754 mmHg 66%
    19:00 +23°C° 0 mm 2 m/S 754 mmHg 71%
    20:00 +22°C° 0 mm 1 m/S 755 mmHg 76%
    21:00 +21°C° 0 mm 1 m/S 755 mmHg 78%
    22:00 +20°C° 0 mm 2 m/S 756 mmHg 80%
    23:00 +19°C° 0 mm 2 m/S 756 mmHg 81%

    23 Januar, Dienstag

    Zeit Temperatur Niederschläge Wind Luftdruck Luftfeuchtigkeit
    00:00 +19°C° 0 mm 2 m/S 756 mmHg 82%
    01:00 +18°C° 0 mm 2 m/S 756 mmHg 83%
    02:00 +18°C° 0 mm 1 m/S 756 mmHg 84%
    03:00 +18°C° 0 mm 1 m/S 756 mmHg 83%
    04:00 +18°C° 0 mm 1 m/S 756 mmHg 82%
    05:00 +18°C° 0 mm 1 m/S 756 mmHg 80%
    06:00 +18°C° 0 mm 1 m/S 756 mmHg 79%
    07:00 +18°C° 0 mm 1 m/S 757 mmHg 77%
    08:00 +18°C° 0 mm 2 m/S 757 mmHg 76%
    09:00 +19°C° 0 mm 2 m/S 757 mmHg 69%
    10:00 +20°C° 0 mm 2 m/S 757 mmHg 63%
    11:00 +23°C° 0 mm 2 m/S 757 mmHg 57%
    12:00 +24°C° 0 mm 2 m/S 757 mmHg 54%
    13:00 +25°C° 0 mm 2 m/S 756 mmHg 52%
    14:00 +26°C° 0 mm 2 m/S 755 mmHg 49%
    15:00 +25°C° 0 mm 3 m/S 755 mmHg 51%
    16:00 +25°C° 0 mm 3 m/S 755 mmHg 54%
    17:00 +24°C° 0 mm 3 m/S 754 mmHg 56%
    18:00 +22°C° 0 mm 3 m/S 755 mmHg 61%
    19:00 +20°C° 0 mm 2 m/S 756 mmHg 66%
    20:00 +19°C° 0 mm 2 m/S 756 mmHg 70%
    21:00 +18°C° 0 mm 2 m/S 756 mmHg 73%
    22:00 +18°C° 0 mm 2 m/S 756 mmHg 75%
    23:00 +17°C° 0 mm 2 m/S 757 mmHg 77%

    24 Januar, Mittwoch

    Zeit Temperatur Niederschläge Wind Luftdruck Luftfeuchtigkeit
    00:00 +17°C° 0 mm 2 m/S 757 mmHg 79%
    01:00 +16°C° 0 mm 2 m/S 756 mmHg 81%
    02:00 +16°C° 0 mm 2 m/S 756 mmHg 83%
    03:00 +16°C° 0 mm 2 m/S 756 mmHg 84%
    04:00 +16°C° 0 mm 2 m/S 756 mmHg 84%
    05:00 +15°C° 0 mm 2 m/S 756 mmHg 85%
    06:00 +16°C° 0 mm 2 m/S 757 mmHg 84%
    07:00 +16°C° 0 mm 2 m/S 757 mmHg 82%
    08:00 +16°C° 0 mm 1 m/S 757 mmHg 81%
    09:00 +18°C° 0 mm 2 m/S 758 mmHg 74%
    10:00 +20°C° 0 mm 2 m/S 758 mmHg 67%
    11:00 +22°C° 0 mm 3 m/S 758 mmHg 60%
    12:00 +24°C° 0 mm 3 m/S 757 mmHg 58%
    13:00 +25°C° 0 mm 3 m/S 756 mmHg 56%
    14:00 +25°C° 0 mm 3 m/S 755 mmHg 54%
    15:00 +25°C° 0 mm 3 m/S 755 mmHg 57%
    16:00 +24°C° 0 mm 3 m/S 755 mmHg 60%
    17:00 +24°C° 0 mm 3 m/S 755 mmHg 63%
    18:00 +21°C° 0 mm 3 m/S 755 mmHg 67%
    19:00 +20°C° 0 mm 3 m/S 756 mmHg 72%
    20:00 +19°C° 0 mm 3 m/S 756 mmHg 76%
    21:00 +19°C° 0 mm 3 m/S 756 mmHg 78%
    22:00 +18°C° 0 mm 3 m/S 756 mmHg 79%
    23:00 +18°C° 0 mm 2 m/S 756 mmHg 81%

    25 Januar, Donnerstag

    Zeit Temperatur Niederschläge Wind Luftdruck Luftfeuchtigkeit
    00:00 +17°C° 0 mm 2 m/S 756 mmHg 81%
    01:00 +17°C° 0 mm 2 m/S 756 mmHg 81%
    02:00 +17°C° 0 mm 2 m/S 756 mmHg 81%
    03:00 +17°C° 0 mm 2 m/S 756 mmHg 80%
    04:00 +17°C° 0 mm 2 m/S 756 mmHg 80%
    05:00 +17°C° 0 mm 2 m/S 756 mmHg 80%
    06:00 +17°C° 0 mm 2 m/S 756 mmHg 79%
    07:00 +17°C° 0 mm 2 m/S 756 mmHg 79%
    08:00 +17°C° 0 mm 2 m/S 757 mmHg 78%
    09:00 +19°C° 0 mm 2 m/S 757 mmHg 73%
    10:00 +20°C° 0 mm 3 m/S 757 mmHg 67%
    11:00 +22°C° 0 mm 3 m/S 757 mmHg 62%
    12:00 +22°C° 0 mm 3 m/S 756 mmHg 61%
    13:00 +24°C° 0 mm 3 m/S 756 mmHg 59%
    14:00 +25°C° 0 mm 3 m/S 755 mmHg 58%
    15:00 +24°C° 0 mm 3 m/S 755 mmHg 62%
    16:00 +22°C° 0 mm 3 m/S 755 mmHg 65%
    17:00 +22°C° 0 mm 3 m/S 755 mmHg 69%
    18:00 +21°C° 0 mm 2 m/S 755 mmHg 72%
    19:00 +20°C° 0 mm 2 m/S 755 mmHg 75%
    20:00 +19°C° 0 mm 2 m/S 756 mmHg 79%
    21:00 +19°C° 0 mm 2 m/S 756 mmHg 80%
    22:00 +19°C° 0 mm 2 m/S 756 mmHg 81%
    23:00 +18°C° 0 mm 2 m/S 756 mmHg 82%
    Mehr zeigen